Weather observations for the past three days for
Somerville, Somerset Airport
Imperial (Metric)
Date Time (edt) Wind (mph) Vis. (mi.) Weather Sky Cond. Temperature (ºF) Relative Humidity Wind Chill (°F) Heat Index (°F) Pressure Precipitation (in)
Air Dwpt 6 hour altimeter (in) sea level (mb) 1 hr 3 hr 6 hr
Max. Min.
17 16:53 Vrbl 3 10.00 Light Rain FEW038 SCT110 84.9 75 72% 93 29.75 1007.3 0.01 0.01
17 15:53 Vrbl 5 10.00 A Few Clouds FEW080 FEW095 91 73 56% 100 29.76 1007.6
17 14:53 Vrbl 5 10.00 Fair CLR 93.9 75 54% 106 29.76 1007.7
17 13:53 Vrbl 3 10.00 Fair CLR 91 75 93 73 59% 102 29.78 1008.2
17 12:53 Calm 9.00 Fair CLR 90 75.9 63% 102 29.8 1009.0
17 11:53 S 3 9.00 Fair CLR 87.1 77 72% 99 29.82 1009.7
17 10:53 Calm 9.00 A Few Clouds FEW017 84 75.9 77% 93 29.84 1010.1
17 09:53 S 6 8.00 Mostly Cloudy BKN014 80.1 75 85% 85 29.85 1010.8
17 08:53 S 3 7.00 Partly Cloudy SCT100 75.9 73.9 94% 75 29.85 1010.7
17 07:53 Calm 4.00 Fog/Mist OVC110 73 73 73 71.1 100% 29.84 1010.2
17 06:53 Calm 4.00 Fog/Mist CLR 73 72 96% 29.83 1009.8
17 05:53 Calm 4.00 Fog/Mist CLR 72 72 100% 29.82 1009.6
17 04:53 Calm 6.00 Fog/Mist CLR 72 72 100% 29.8 1009.1
17 03:53 Calm 6.00 Fog/Mist CLR 72 71.1 97% 29.81 1009.2
17 02:53 Calm 5.00 Fog/Mist CLR 71.1 71.1 100% 29.82 1009.7
17 01:53 Calm 5.00 Fog/Mist CLR 72 71.1 79 72 97% 29.83 1010.0
17 00:53 Calm 4.00 Fog/Mist BKN095 72 72 100% 29.83 1010.0
16 23:53 Calm 8.00 Fair CLR 73 72 96% 29.83 1009.9
16 22:53 S 3 6.00 Fog/Mist FEW120 73 72 96% 29.83 1010.0
16 21:53 Calm 7.00 Fair CLR 73.9 73 97% 29.8 1008.9
16 20:53 SW 3 7.00 Thunderstorm in Vicinity BKN075 BKN100 75.9 75 97% 75 29.8 1009.0
16 18:53 Calm 9.00 A Few Clouds FEW027 FEW120 81 69.1 67% 84 29.74 1006.9
16 17:53 SW 12 G 21 8.00 Fair CLR 93 72 50% 101 29.71 1005.7
16 16:53 S 8 9.00 Fair CLR 96.1 73 48% 106 29.69 1005.3
16 15:53 Vrbl 7 9.00 A Few Clouds FEW080 97 72 45% 106 29.7 1005.7
16 14:53 S 10 9.00 A Few Clouds FEW075 97 73 46% 107 29.73 1006.6
16 13:53 Vrbl 6 9.00 A Few Clouds FEW065 97 75 98.1 81 49% 110 29.76 1007.7
16 12:53 S 6 9.00 A Few Clouds FEW065 95 77 56% 110 29.79 1008.4
16 11:53 S 5 10.00 Fair CLR 93 75 56% 104 29.81 1009.3
16 10:53 S 6 9.00 Fair CLR 90 75.9 63% 102 29.81 1009.4
16 09:53 S 3 9.00 Fair CLR 88 73.9 63% 97 29.82 1009.8
16 08:53 Calm 9.00 Fair CLR 84.9 73 68% 92 29.83 1009.9
16 07:53 Calm 8.00 Fair CLR 81 73 81 71.1 77% 86 29.83 1009.9
16 06:53 Calm 6.00 Fog/Mist CLR 75 73.9 96% 73 29.83 1009.8
16 05:53 NW 3 4.00 Fog/Mist CLR 72 71.1 97% 29.82 1009.5
16 04:53 Calm 3.00 Fog/Mist CLR 71.1 71.1 100% 29.79 1008.6
16 03:53 Calm 6.00 Fog/Mist CLR 73 72 96% 29.79 1008.4
16 02:53 Calm 7.00 Fair CLR 73.9 73 97% 29.77 1007.9
16 01:53 Calm 5.00 Fog/Mist CLR 73.9 73 82.9 73.9 97% 29.76 1007.7
16 00:53 Calm 8.00 Fair CLR 75 73 94% 73 29.77 1007.8
15 23:53 Calm 9.00 Fair CLR 77 73.9 90% 78 29.76 1007.7
15 22:53 Calm 10.00 Fair CLR 82 72 72% 87 29.78 1008.1
15 21:53 Calm 9.00 Fair CLR 78.1 75.9 93% 81 29.78 1008.1
15 20:53 Calm 10.00 Fair CLR 79 75 88% 83 29.77 1007.8
15 19:53 Calm 10.00 Fair CLR 82.9 75 95 82.9 77% 90 29.76 1007.6
15 18:53 Calm 10.00 Fair CLR 91 72 54% 99 29.75 1007.3
15 17:53 SW 3 10.00 Fair CLR 93 72 50% 101 29.76 1007.7
15 16:53 Calm 10.00 Fair CLR 93.9 70 46% 100 29.78 1008.1
15 15:53 W 5 10.00 Fair CLR 93.9 72 49% 102 29.8 1008.9
15 14:53 Vrbl 3 10.00 Fair CLR 93.9 72 49% 102 29.82 1009.5
15 13:53 Vrbl 3 8.00 Partly Cloudy SCT043 91 78.1 91.9 75.9 66% 106 29.84 1010.3
15 12:53 Vrbl 3 8.00 Fair CLR 89.1 77 68% 102 29.86 1011.0
15 11:53 Calm 7.00 Fair CLR 89.1 79 72% 105 29.88 1011.5
15 10:53 SW 3 7.00 Mostly Cloudy SCT016 BKN100 82 77 85% 90 29.89 1011.9
15 09:53 Calm 6.00 Fog/Mist BKN014 OVC020 82 78.1 88% 91 29.9 1012.2
15 08:53 Vrbl 3 6.00 Fog/Mist OVC016 79 77 94% 83 29.9 1012.3
15 07:53 Calm 4.00 Fog/Mist OVC014 75.9 75 75.9 71.1 97% 75 29.9 1012.4 0.06
15 06:53 Calm 3.00 Fog/Mist OVC015 73.9 73 97% 29.9 1012.3
15 05:53 Calm 3.00 Fog/Mist BKN022 72 72 100% 29.89 1012.1
15 03:53 Calm 4.00 Fog/Mist BKN080 BKN100 73 73 100% 29.89 1012.1 0.02
15 02:53 Calm 1.25 Fog/Mist FEW100 72 71.1 97% 29.89 1011.9
15 01:53 Calm 1.75 Fog/Mist SCT004 72 72 80.1 72 100% 29.91 1012.5
15 00:53 Calm 5.00 Fog/Mist CLR 73 72 96% 29.92 1013.1
14 23:53 Calm 7.00 Fair CLR 73.9 73 97% 29.93 1013.4
14 22:53 Calm 7.00 Fair CLR 73.9 73 97% 29.93 1013.3
14 21:53 Calm 8.00 Fair CLR 75 73.9 96% 73 29.93 1013.5
14 20:53 Calm 7.00 Fair CLR 75.9 75 97% 75 29.93 1013.3
14 19:53 Calm 9.00 Fair CLR 79 75 95 77 88% 83 29.93 1013.2 0.27
14 18:53 S 5 9.00 Fair CLR 82.9 75 77% 90 29.94 1013.5
14 17:53 S 7 9.00 Fair CLR 84 75.9 77% 93 29.95 1014.0
Date Time (edt) Wind (mph) Vis. (mi.) Weather Sky Cond. Air Dwpt Max. Min. Relative Humidity Wind Chill (°F) Heat Index (°F) altimeter (in) sea level (mb) 1 hr 3 hr 6 hr
6 hour
Temperature (ºF) Pressure Precipitation (in)